Weather History for Winona, MN

Change the Weather History Date:

Thursday, October 4, 2012

  Actual Average Record
Temperature  
Mean Temperature 50 °F -  
Max Temperature 59 °F 69 °F 87 °F (2005)
Min Temperature 41 °F 47 °F 28 °F (1999)
Degree Days  
Heating Degree Days 14    
Moisture  
Dew Point 35 °F    
Average Humidity 53    
Maximum Humidity 77    
Minimum Humidity 41    
Precipitation  
Precipitation 0.00 in - - ()
Sea Level Pressure  
Sea Level Pressure 30.01 in    
Wind  
Wind Speed 8 mph (West)    
Max Wind Speed 20 mph    
Max Gust Speed 30 mph    
Visibility 10 miles    
Events      
Averages and records for this station are not official NWS values.
T = Trace of Precipitation, MM = Missing Value Source: NWS Daily Summary

Daily Weather History Graph

Daily Weather History Graph

Search for Another Location

Airport:

Trip Planner

Search our weather history database for the weather conditions in past years. The results will help you decide how hot, cold, wet, or windy it might be!

Date:

Astronomy

Oct. 04, 2012 Rise Set
Actual Time 7:08 AM CDT 6:41 PM CDT
Civil Twilight 6:39 AM CDT 7:10 PM CDT
Nautical Twilight 6:06 AM CDT 7:43 PM CDT
Astronomical Twilight 5:32 AM CDT 8:17 PM CDT
Moon 9:07 PM CDT (10/4) 11:35 AM CDT (10/4)
Length of Visible Light 12h 30m
Length of Day
11h 32m
Waning Gibbous, 82% of the Moon is Illuminated
Oct 4
Waning Gibbous
Oct 8
Last Quarter
Oct 15
New
Oct 21
First Quarter
Oct 29
Full

Hourly Weather History & Observations

Time (CDT) Temp. Windchill Dew Point Humidity Pressure Visibility Wind Dir Wind Speed Gust Speed Precip Events Conditions
12:11 AM 53.6 °F - 46.4 °F 77% 29.93 in 10.0 mi ESE 3.5 mph - N/A   Clear
12:31 AM 53.6 °F - 44.6 °F 72% 29.93 in 10.0 mi SSE 4.6 mph - N/A   Clear
12:48 AM 59.0 °F - 42.8 °F 55% 29.92 in 10.0 mi SSE 5.8 mph - N/A   Clear
1:11 AM 59.0 °F - 42.8 °F 55% 29.91 in 10.0 mi SSE 4.6 mph - N/A   Clear
1:31 AM 59.0 °F - 42.8 °F 55% 29.91 in 10.0 mi SSE 5.8 mph - N/A   Clear
1:51 AM 59.0 °F - 42.8 °F 55% 29.90 in 10.0 mi SSE 4.6 mph - N/A   Clear
2:11 AM 57.2 °F - 42.8 °F 59% 29.90 in 10.0 mi SSE 5.8 mph - N/A   Clear
2:31 AM 57.2 °F - 44.6 °F 63% 29.89 in 10.0 mi SE 5.8 mph - N/A   Clear
2:51 AM 59.0 °F - 42.8 °F 55% 29.89 in 10.0 mi SE 5.8 mph - N/A   Clear
3:11 AM 57.2 °F - 42.8 °F 59% 29.89 in 10.0 mi SSE 3.5 mph - N/A   Clear
3:31 AM 57.2 °F - 44.6 °F 63% 29.88 in 10.0 mi Calm Calm - N/A   Clear
3:52 AM 57.2 °F - 42.8 °F 59% 29.87 in 10.0 mi South 3.5 mph - N/A   Clear
4:11 AM 59.0 °F - 42.8 °F 55% 29.87 in 10.0 mi South 3.5 mph - N/A   Clear
4:31 AM 59.0 °F - 42.8 °F 55% 29.86 in 10.0 mi South 5.8 mph - N/A   Clear
4:51 AM 59.0 °F - 42.8 °F 55% 29.87 in 10.0 mi SSW 4.6 mph - N/A   Clear
5:11 AM 57.2 °F - 42.8 °F 59% 29.86 in 10.0 mi SSW 3.5 mph - N/A   Clear
5:32 AM 57.2 °F - 42.8 °F 59% 29.87 in 10.0 mi SSW 3.5 mph - N/A   Clear
5:51 AM 59.0 °F - 42.8 °F 55% 29.87 in 10.0 mi SW 4.6 mph - N/A   Clear
6:11 AM 57.2 °F - 41.0 °F 55% 29.88 in 10.0 mi WSW 3.5 mph - N/A   Clear
6:32 AM 57.2 °F - 41.0 °F 55% 29.88 in 10.0 mi WSW 6.9 mph 17.3 mph N/A   Clear
6:51 AM 53.6 °F - 37.4 °F 54% 29.89 in 10.0 mi West 10.4 mph 20.7 mph N/A   Clear
7:11 AM 51.8 °F - 37.4 °F 58% 29.92 in 10.0 mi West 11.5 mph 16.1 mph N/A   Clear
7:37 AM 51.8 °F - 39.2 °F 62% 29.92 in 10.0 mi WNW 10.4 mph 17.3 mph N/A   Clear
7:51 AM 51.8 °F - 39.2 °F 62% 29.93 in 10.0 mi West 8.1 mph 17.3 mph N/A   Clear
8:11 AM 51.8 °F - 39.2 °F 62% 29.94 in 10.0 mi West 10.4 mph 20.7 mph N/A   Clear
8:32 AM 50.0 °F - 35.6 °F 58% 29.95 in 10.0 mi WNW 11.5 mph 19.6 mph N/A   Clear
8:51 AM 50.0 °F - 35.6 °F 58% 29.95 in 10.0 mi West 13.8 mph 24.2 mph N/A   Clear
9:11 AM 50.0 °F - 35.6 °F 58% 29.96 in 10.0 mi WNW 16.1 mph 26.5 mph N/A   Clear
9:32 AM 51.8 °F - 37.4 °F 58% 29.97 in 10.0 mi WNW 12.7 mph 24.2 mph N/A   Clear
9:51 AM 51.8 °F - 37.4 °F 58% 29.97 in 10.0 mi WNW 11.5 mph 20.7 mph N/A   Clear
10:12 AM 51.8 °F - 35.6 °F 54% 29.97 in 10.0 mi West 12.7 mph 19.6 mph N/A   Clear
10:31 AM 51.8 °F - 35.6 °F 54% 29.99 in 10.0 mi West 16.1 mph 23.0 mph N/A   Clear
10:51 AM 51.8 °F - 33.8 °F 50% 29.99 in 10.0 mi West 9.2 mph 20.7 mph N/A   Clear
11:11 AM 51.8 °F - 33.8 °F 50% 29.99 in 10.0 mi West 12.7 mph 23.0 mph N/A   Clear
11:32 AM 53.6 °F - 33.8 °F 47% 29.99 in 10.0 mi West 8.1 mph 18.4 mph N/A   Clear
11:51 AM 53.6 °F - 32.0 °F 44% 30.01 in 10.0 mi WNW 13.8 mph 23.0 mph N/A   Clear
12:11 PM 53.6 °F - 32.0 °F 44% 30.01 in 10.0 mi West 11.5 mph 17.3 mph N/A   Scattered Clouds
12:32 PM 51.8 °F - 32.0 °F 47% 30.01 in 7.0 mi WNW 12.7 mph 26.5 mph N/A   Clear
12:51 PM 53.6 °F - 32.0 °F 44% 30.02 in 10.0 mi WNW 13.8 mph 23.0 mph N/A   Clear
1:11 PM 53.6 °F - 32.0 °F 44% 30.02 in 10.0 mi West 11.5 mph 26.5 mph N/A   Clear
1:31 PM 53.6 °F - 32.0 °F 44% 30.02 in 7.0 mi West 12.7 mph 29.9 mph N/A   Clear
1:51 PM 53.6 °F - 32.0 °F 44% 30.03 in 10.0 mi West 13.8 mph 23.0 mph N/A   Clear
2:12 PM 53.6 °F - 32.0 °F 44% 30.04 in 10.0 mi West 11.5 mph 26.5 mph N/A   Clear
2:31 PM 53.6 °F - 32.0 °F 44% 30.05 in 7.0 mi WNW 12.7 mph 25.3 mph N/A   Clear
2:51 PM 53.6 °F - 32.0 °F 44% 30.05 in 10.0 mi WNW 18.4 mph 26.5 mph N/A   Clear
3:12 PM 53.6 °F - 30.2 °F 41% 30.06 in 10.0 mi West 15.0 mph 29.9 mph N/A   Clear
3:31 PM 53.6 °F - 30.2 °F 41% 30.06 in 10.0 mi WNW 18.4 mph 26.5 mph N/A   Clear
3:51 PM 53.6 °F - 30.2 °F 41% 30.06 in 10.0 mi WNW 16.1 mph 27.6 mph N/A   Clear
4:12 PM 51.8 °F - 30.2 °F 44% 30.07 in 10.0 mi WNW 18.4 mph 25.3 mph N/A   Scattered Clouds
4:31 PM 51.8 °F - 30.2 °F 44% 30.07 in 10.0 mi WNW 13.8 mph 26.5 mph N/A   Scattered Clouds
4:51 PM 51.8 °F - 30.2 °F 44% 30.07 in 10.0 mi West 13.8 mph 25.3 mph N/A   Scattered Clouds
5:12 PM 51.8 °F - 30.2 °F 44% 30.09 in 10.0 mi WNW 11.5 mph 24.2 mph N/A   Scattered Clouds
5:31 PM 50.0 °F - 30.2 °F 47% 30.09 in 7.0 mi WNW 15.0 mph 25.3 mph N/A   Mostly Cloudy
5:51 PM 48.2 °F - 30.2 °F 50% 30.10 in 10.0 mi WNW 16.1 mph 21.9 mph N/A   Scattered Clouds
6:12 PM 46.4 °F 41.1 °F 30.2 °F 53% 30.10 in 10.0 mi NW 11.5 mph 24.2 mph N/A   Scattered Clouds
6:31 PM 46.4 °F 40.4 °F 30.2 °F 53% 30.11 in 10.0 mi WNW 13.8 mph 20.7 mph N/A   Mostly Cloudy
6:51 PM 46.4 °F 41.1 °F 30.2 °F 53% 30.12 in 10.0 mi WNW 11.5 mph 21.9 mph N/A   Scattered Clouds
7:11 PM 46.4 °F 41.1 °F 30.2 °F 53% 30.12 in 10.0 mi WNW 11.5 mph 16.1 mph N/A   Scattered Clouds
7:31 PM 46.4 °F 41.1 °F 30.2 °F 53% 30.12 in 10.0 mi WNW 11.5 mph 18.4 mph N/A   Scattered Clouds
7:52 PM 46.4 °F 41.1 °F 30.2 °F 53% 30.13 in 10.0 mi WNW 11.5 mph 21.9 mph N/A   Mostly Cloudy
8:11 PM 46.4 °F 40.1 °F 30.2 °F 53% 30.13 in 10.0 mi WNW 15.0 mph 23.0 mph N/A   Overcast
8:31 PM 44.6 °F 39.7 °F 28.4 °F 53% 30.14 in 10.0 mi WNW 9.2 mph 20.7 mph N/A   Mostly Cloudy
8:52 PM 44.6 °F 38.4 °F 28.4 °F 53% 30.14 in 10.0 mi WNW 12.7 mph 27.6 mph N/A   Overcast
9:11 PM 44.6 °F 37.8 °F 28.4 °F 53% 30.14 in 10.0 mi WNW 15.0 mph 27.6 mph N/A   Overcast
9:31 PM 44.6 °F 39.2 °F 28.4 °F 53% 30.14 in 10.0 mi WNW 10.4 mph 17.3 mph N/A   Overcast
9:52 PM 44.6 °F 37.4 °F 28.4 °F 53% 30.14 in 10.0 mi NW 16.1 mph 24.2 mph N/A   Overcast
10:11 PM 44.6 °F 39.7 °F 28.4 °F 53% 30.15 in 10.0 mi WNW 9.2 mph 17.3 mph N/A   Overcast
10:31 PM 44.6 °F 38.8 °F 28.4 °F 53% 30.15 in 10.0 mi WNW 11.5 mph 21.9 mph N/A   Overcast
10:51 PM 44.6 °F 36.6 °F 28.4 °F 53% 30.15 in 10.0 mi WNW 19.6 mph 25.3 mph N/A   Overcast
11:11 PM 44.6 °F 38.8 °F 28.4 °F 53% 30.15 in 10.0 mi WNW 11.5 mph 21.9 mph N/A   Mostly Cloudy
11:32 PM 42.8 °F 36.6 °F 26.6 °F 53% 30.14 in 10.0 mi WNW 11.5 mph 16.1 mph N/A   Scattered Clouds
11:51 PM 41.0 °F 35.8 °F 26.6 °F 57% 30.14 in 10.0 mi WNW 8.1 mph 16.1 mph N/A   Clear